TimePDT,TemperatureF,Dew PointF,Humidity,Sea Level PressureIn,VisibilityMPH,Wind Direction,Wind SpeedMPH,Gust SpeedMPH,PrecipitationIn,Events,Conditions,WindDirDegrees,DateUTC
12:54 AM,57.9,53.1,84,30.11,10.0,Calm,Calm,-,N/A,,Clear,0,2012-10-06 07:54:00
1:54 AM,57.0,54.0,89,30.12,9.0,Calm,Calm,-,N/A,,Clear,0,2012-10-06 08:54:00
2:08 AM,57.2,55.4,94,30.08,4.0,South,3.5,-,N/A,,Scattered Clouds,190,2012-10-06 09:08:00
2:11 AM,57.2,55.4,94,30.08,1.8,South,3.5,-,N/A,,Mostly Cloudy,190,2012-10-06 09:11:00
2:21 AM,55.4,55.4,100,30.08,2.5,Calm,Calm,-,N/A,,Scattered Clouds,0,2012-10-06 09:21:00
2:28 AM,55.4,55.4,100,30.08,8.0,SE,3.5,-,N/A,,Scattered Clouds,140,2012-10-06 09:28:00
2:54 AM,55.9,52.0,87,30.10,10.0,East,3.5,-,N/A,,Clear,100,2012-10-06 09:54:00
3:54 AM,57.0,52.0,83,30.09,10.0,East,6.9,-,N/A,,Clear,90,2012-10-06 10:54:00
4:54 AM,55.0,51.1,86,30.09,10.0,ENE,3.5,-,N/A,,Clear,70,2012-10-06 11:54:00
5:54 AM,54.0,50.0,86,30.09,10.0,East,5.8,-,N/A,,Clear,90,2012-10-06 12:54:00
6:54 AM,53.1,50.0,89,30.10,10.0,East,3.5,-,N/A,,Clear,90,2012-10-06 13:54:00
7:54 AM,55.9,51.1,84,30.10,10.0,East,4.6,-,N/A,,Clear,90,2012-10-06 14:54:00
8:54 AM,62.1,52.0,70,30.10,10.0,NW,3.5,-,N/A,,Clear,320,2012-10-06 15:54:00
9:54 AM,62.1,54.0,75,30.10,10.0,Variable,3.5,-,N/A,,Clear,0,2012-10-06 16:54:00
10:54 AM,66.9,54.0,63,30.10,10.0,WNW,5.8,-,N/A,,Clear,300,2012-10-06 17:54:00
11:54 AM,68.0,53.1,59,30.09,10.0,West,3.5,-,N/A,,Clear,270,2012-10-06 18:54:00
12:54 PM,66.9,52.0,59,30.07,10.0,WNW,5.8,-,N/A,,Clear,290,2012-10-06 19:54:00
1:54 PM,69.1,53.1,57,30.05,10.0,NW,10.4,-,N/A,,Partly Cloudy,320,2012-10-06 20:54:00
2:54 PM,68.0,51.1,55,30.04,10.0,West,8.1,-,N/A,,Clear,280,2012-10-06 21:54:00
3:54 PM,68.0,48.9,50,30.03,10.0,West,8.1,-,N/A,,Clear,270,2012-10-06 22:54:00
4:54 PM,69.1,48.9,49,30.02,10.0,WSW,9.2,-,N/A,,Clear,250,2012-10-06 23:54:00
5:54 PM,66.9,48.9,52,30.02,10.0,WSW,9.2,-,N/A,,Clear,240,2012-10-07 00:54:00
6:54 PM,63.0,50.0,63,30.03,10.0,WSW,8.1,-,N/A,,Clear,240,2012-10-07 01:54:00
7:54 PM,62.1,48.9,62,30.04,10.0,SW,6.9,-,N/A,,Clear,220,2012-10-07 02:54:00
8:54 PM,61.0,48.9,64,30.03,10.0,South,8.1,-,N/A,,Clear,180,2012-10-07 03:54:00
9:54 PM,60.1,48.0,64,30.04,10.0,South,6.9,-,N/A,,Clear,180,2012-10-07 04:54:00
10:54 PM,59.0,48.9,69,30.03,10.0,South,6.9,-,N/A,,Clear,190,2012-10-07 05:54:00
11:54 PM,59.0,48.9,69,30.02,10.0,SSW,6.9,-,N/A,,Clear,200,2012-10-07 06:54:00